Location: Höngeda
(51.1822°N, 10.5042°E)
Time: 00:02:01
(UTC+00:00)

Daily predictions for brighter satellites

Satellite Brightness Start Highest point End
(mag) Time Altitude Azimuth Time Altitude Azimuth Time Altitude Azimuth
Resurs 1-4 Rocket 4.5 00:20:32 10° NNE 00:22:10 19° NE 00:22:10 19° NE
CZ-2D R/B 4.2 00:35:36 10° NNE 00:37:41 23° NE 00:37:41 23° NE
ADEOS II 3.9 00:58:52 10° NNE 01:01:33 27° NE 01:01:33 27° NE
ATLAS CENTAUR R/B 3.8 01:32:08 23° ENE 01:32:08 23° ENE 01:34:26 10° ENE
Cosmos 1980 Rocket 3.8 01:29:57 10° NNW 01:41:01 - SE 01:32:42 28° N
ATLAS 5 CENTAUR R/B 4.0 01:41:57 19° N 01:41:57 19° N 01:45:06 10° NE
SL-16 R/B 4.1 01:51:00 23° NW 01:51:00 23° NW 01:53:20 10° NNW
Cosmos 2056 Rocket 4.5 01:55:00 42° E 01:55:00 42° E 01:59:06 10° NE
SL-16 R/B 4.1 01:54:42 10° NNW 01:59:32 28° NE 02:04:22 10° E
IRS-1D 4.1 01:57:40 10° NNE 02:02:35 55° E 02:02:35 55° E
ALOS 3.8 02:00:26 10° NNE 02:04:36 31° E 02:05:09 30° ESE
Resurs 1-4 Rocket 3.5 02:00:20 10° N 02:03:14 29° NNW 02:03:14 29° NNW
IDEFIX/ARIANE 42P 3.4 02:02:02 10° N 02:05:40 43° N 02:05:40 43° N
Cosmos 1833 Rocket 2.7 02:13:00 75° NE 02:13:00 75° NE 02:18:12 10° NNE
CZ-2D R/B 3.5 02:15:54 10° N 02:18:59 27° NNW 02:18:59 27° NNW
CENTAUR R/B 3.6 02:27:14 27° SSE 02:29:40 37° ESE 02:35:58 10° NE
Meteor 1-27 Rocket 4.4 02:28:05 28° SSE 02:30:58 54° E 02:36:44 10° NNE
ARIANE 5 R/B 4.3 02:28:12 10° NE 02:32:31 28° E 02:36:46 10° SSE
Lacrosse 4 Rocket 2.6 02:30:46 27° N 02:32:40 43° NE 02:36:54 10° ESE
BREEZE-M DEB (TANK) 4.3 02:34:33 19° E 02:34:33 19° E 02:35:45 10° E
CZ-2C R/B 3.7 02:29:44 10° SE 02:34:44 45° ENE 02:39:52 10° N
Cosmos 1153 Rocket 4.5 02:34:05 43° S 02:36:17 79° E 02:42:33 10° NNE
CZ-2C R/B 4.5 02:34:33 10° NNE 02:37:41 15° SE 02:38:45 10° SE
Helios 1B rocket 4.0 02:33:45 10° NNE 02:37:26 32° E 02:39:02 24° SE
Cosmos 1447 Rocket 4.3 02:31:27 10° NNW 02:37:45 71° W 02:38:47 60° SSW
Meteor 1-10 Rocket 4.1 02:39:08 67° SSW 02:39:56 88° WNW 02:45:39 10° NNE
Cosmos 2082 Rocket 2.5 02:38:50 45° S 02:40:20 61° ESE 02:45:53 10° NE
ADEOS II 3.1 02:38:43 10° N 02:42:28 32° NW 02:42:28 32° NW
Cosmos 2360 Rocket 4.1 02:38:50 10° NNW 02:43:41 28° NE 02:48:29 10° E
Cosmos 1452 Rocket 4.5 02:43:49 23° SSE 02:46:38 44° ESE 02:51:39 10° NE
CZ-2C R/B 2.8 02:44:13 10° NNE 02:49:09 61° ESE 02:51:08 34° SSE
Cosmos 1624 Rocket 3.9 02:50:31 66° W 02:50:50 67° WNW 02:56:11 10° NNE
USA 307 3.0 02:51:30 67° NNE 02:51:30 67° NNE 02:55:15 10° ENE
Cosmos 2346 Rocket 4.4 02:48:45 10° N 02:54:52 88° E 03:01:00 10° S
Cosmos 1441 Rocket 3.7 02:55:51 52° N 02:55:51 52° N 02:58:49 10° NNE
ERBS 4.3 02:57:08 21° NNE 02:57:08 21° NNE 02:58:34 10° NE
USA 306 2.9 03:00:25 65° NNW 03:00:25 65° NNW 03:04:31 10° ENE
Cosmos 1459 Rocket 4.2 02:55:34 10° S 03:01:53 73° E 03:08:15 10° NNE
BREEZE-M DEB (TANK) 3.7 03:04:00 26° SSE 03:04:00 26° SSE 03:07:02 10° SE
COSMOS 2406 3.1 03:01:52 50° SW 03:03:23 77° WNW 03:09:06 10° NNE
NOSS 3-2 (A) 3.8 03:01:33 30° S 03:04:12 57° SE 03:10:30 10° NE
Cosmos 1151 Rocket 4.0 03:06:28 32° NW 03:06:28 32° NW 03:09:21 10° N
EO 1 Del DPAF 4.4 03:03:22 10° N 03:05:06 28° N 03:05:06 28° N
Cosmos 1371 Rocket 4.2 03:06:18 47° WNW 03:06:47 49° WNW 03:11:52 10° NNE
Cosmos 1605 Rocket 4.2 03:06:05 42° W 03:06:48 44° WNW 03:12:38 10° N
Meteor 2-13 Rocket 4.3 03:01:18 10° NNW 03:07:29 79° W 03:13:38 10° S
ATLAS CENTAUR R/B 1.9 03:08:06 52° WNW 03:08:43 56° NW 03:13:29 10° NE
Cosmos 1933 Rocket 3.5 03:07:00 10° N 03:11:28 89° ENE 03:15:52 10° S
Cosmos 1328 Rocket 3.6 03:12:11 55° WNW 03:12:11 55° WNW 03:16:32 10° N
Cosmos 2322 Rocket 2.9 03:07:56 10° NNW 03:13:33 54° NE 03:19:05 10° SE
IRS-1C 4.4 03:08:55 10° NNE 03:14:17 70° ESE 03:19:32 10° S
DELTA 2 DEB (DPAF) 4.3 03:10:08 10° SSE 03:14:31 74° ENE 03:18:56 10° NNW
Meteor 1-11 Rocket 4.1 03:10:45 10° NNW 03:16:23 44° W 03:18:13 34° SW
Cosmos 1980 Rocket 3.9 03:14:14 10° NW 03:23:06 16° SSW 03:24:18 10° S
Cosmos 1975 3.8 03:15:37 10° N 03:19:30 48° ENE 03:23:20 10° SSE
SL-08 R/B 3.5 03:16:14 10° SSE 03:20:55 73° ENE 03:25:43 10° NNW
COSMOS 2455 3.6 03:15:25 10° NNW 03:21:19 52° NE 03:27:10 10° ESE
BREEZE M DEB (TANK) 4.4 03:16:14 22° SW 03:24:09 52° SSE 03:28:24 10° E
Tsikada Rocket 4.3 03:18:24 10° N 03:24:43 68° ENE 03:30:54 10° SSE
Cosmos 1242 Rocket 4.2 03:22:01 10° N 03:25:12 34° ENE 03:28:21 10° SE
Cosmos 1850 Rocket 4.0 03:19:57 10° NNW 03:25:13 60° WSW 03:30:27 10° S
PAYLOAD A 3.8 03:20:34 10° N 03:25:24 71° WNW 03:28:15 26° SSW
SL-19 R/B 4.4 03:20:08 10° NNE 03:26:18 68° WNW 03:30:17 22° SW
USA 308 3.0 03:25:30 44° WNW 03:26:33 61° N 03:30:38 10° ENE
ATLAS 5 CENTAUR R/B 3.8 03:23:40 10° NW 03:27:38 25° NNE 03:32:14 10° ENE
Cosmos 44 Rocket 3.3 03:26:24 42° WSW 03:27:48 62° NW 03:32:30 10° NE
Meteor 2-9 Rocket 4.1 03:23:31 10° NNW 03:29:15 71° W 03:34:46 10° S
Cosmos 1802 Rocket 4.0 03:24:55 10° S 03:31:18 89° WNW 03:37:36 10° N
Cosmos 1725 Rocket 4.2 03:25:12 10° S 03:31:29 75° E 03:37:49 10° NNE
CBERS-1 4.3 03:27:01 10° N 03:31:56 48° WNW 03:33:56 32° WSW
Cosmos 1378 3.0 03:30:13 24° S 03:32:20 84° E 03:36:00 10° NNE
Cosmos 2056 Rocket 4.3 03:35:21 29° W 03:36:30 32° NW 03:41:07 10° N
Meteor 1-19 Rocket 4.0 03:33:24 10° SSW 03:38:49 83° WNW 03:44:18 10° NNE
Cosmos 2173 Rocket 3.9 03:33:20 12° SSW 03:38:58 63° WNW 03:45:02 10° N
Cosmos 1346 Rocket 4.1 03:40:21 24° NW 03:40:21 24° NW 03:43:08 10° N
Cosmos 1515 Rocket 3.7 03:37:57 28° SW 03:40:06 54° WNW 03:44:30 10° N
GP-B 3.0 03:36:28 10° S 03:40:54 89° W 03:45:22 10° N
ALOS 2.8 03:37:43 10° N 03:42:03 39° WNW 03:43:36 30° WSW
STPSAT 2 (USA 217) 4.5 03:37:42 10° NNW 03:42:11 69° WSW 03:46:37 10° SSE
Cosmos 2278 4.0 03:38:16 10° NW 03:43:32 41° WSW 03:48:46 10° S
SL-16 R/B 2.1 03:38:33 10° NNW 03:44:14 75° WSW 03:49:53 10° SSE
Cosmos 1461 2.7 03:42:21 30° SW 03:44:18 84° NW 03:48:34 10° NE
IDEFIX/ARIANE 42P 4.4 03:43:15 10° NNW 03:45:55 14° NW 03:46:27 14° WNW
USA 305 3.2 03:44:58 28° WNW 03:46:55 57° N 03:50:58 10° ENE
FENGYUN 3A 4.3 03:44:16 10° N 03:49:07 35° WNW 03:51:34 23° WSW
USA 290 3.7 03:47:17 10° NNW 03:50:21 38° ENE 03:53:22 10° SE
METEOR-M 4.2 03:46:14 10° N 03:51:31 59° WNW 03:56:45 10° SSW
IRS-P3 4.1 03:48:54 10° N 03:54:13 66° WNW 03:59:29 10° SSW
SJ 16-02 3.9 03:52:28 10° N 03:55:54 22° NE 03:59:19 10° ESE
Cosmos 1833 Rocket 4.0 03:54:43 19° WNW 03:57:10 25° NW 04:01:48 10° NNE
Cosmos 192 4.3 03:55:37 10° SSW 04:00:35 90° ESE 04:05:35 10° NNE
Cosmos 2228 Rocket 3.1 03:59:03 10° S 04:03:31 84° E 04:07:59 10° NNE
Spot 4 Rocket 4.1 03:59:13 10° NNE 04:04:24 81° ESE 04:09:31 10° SSW
Cosmos 2219 Rocket 3.4 03:59:27 10° NNW 04:04:52 44° NE 04:10:13 10° ESE
YAOGAN 6 2.5 04:01:17 10° N 04:04:53 63° WNW 04:08:26 10° SSW
Cosmos 1331 Rocket 3.9 04:00:49 10° SSW 04:05:57 73° WNW 04:11:10 10° NNE
Cosmos 1726 3.7 04:05:46 10° N 04:09:11 38° ENE 04:12:34 10° SE
Cosmos 1484 Rocket 3.0 04:06:08 10° N 04:10:00 50° WNW 04:13:50 10° SW
Cosmos 1302 Rocket 4.4 04:04:58 10° S 04:10:12 66° ESE 04:15:28 10° NNE
Lacrosse 4 Rocket 2.3 04:07:19 10° NW 04:11:11 31° WSW 04:15:05 10° S
ARIANE 5 R/B 2.7 04:07:00 10° N 04:11:50 48° WNW 04:16:36 10° SW
Helios 1B rocket 3.3 04:08:55 10° N 04:12:31 30° WNW 04:15:11 15° WSW
Lacrosse 5 rocket 4.0 04:10:01 10° S 04:13:20 20° SE 04:16:39 10° E
CZ-2C R/B 3.2 04:10:28 10° SSW 04:15:11 33° W 04:20:01 10° NNW
DMSP B5D2-2 4.3 04:10:06 10° SSE 04:15:22 80° ENE 04:20:42 10° NNW
Meteor 1-29 2.8 04:12:21 10° N 04:15:38 66° WNW 04:18:54 10° SSW
CZ-2C R/B 3.2 04:12:05 10° NNE 04:17:51 83° WNW 04:23:20 10° SSW
CENTAUR R/B 2.7 04:14:25 13° WSW 04:19:56 65° NW 04:27:24 10° NE
Cosmos 2333 Rocket 2.5 04:15:30 10° NNW 04:21:14 72° ENE 04:26:53 10° SE
CZ-4C R/B 3.7 04:17:51 10° S 04:22:02 53° W 04:26:20 10° NNW
Cosmos 1110 Rocket 4.2 04:17:17 10° SW 04:22:21 52° WNW 04:27:26 10° NNE
Cosmos 2016 Rocket 4.3 04:16:43 10° SSW 04:22:51 49° WNW 04:29:02 10° N
COSMO-SKYMED 1 2.6 04:20:07 10° SSE 04:24:28 90° WNW 04:28:51 10° NNW
Cosmos 1707 Rocket 3.6 04:20:24 10° S 04:24:45 83° E 04:29:06 10° NNE
Cosmos 2082 Rocket 3.1 04:20:42 14° WSW 04:24:48 32° NW 04:29:50 10° NNE
Okean 1 4.5 04:23:13 12° WSW 04:26:09 24° WNW 04:29:30 10° NNW
CZ-2C R/B 3.6 04:23:04 10° N 04:26:57 23° WNW 04:30:29 11° WSW
Cosmos 1869 Rocket 4.2 04:23:10 10° NNW 04:27:09 33° W 04:31:05 10° SSW
Cosmos 2360 Rocket 2.1 04:22:36 10° NNW 04:28:13 72° WSW 04:33:48 10° SSE
Envisat 3.1 04:23:20 10° N 04:28:18 55° WNW 04:33:15 10° SW
Cosmos 1452 Rocket 4.2 04:24:11 11° WSW 04:28:53 35° NW 04:33:45 10° NNE
USA 276 3.6 04:26:36 10° SW 04:29:16 29° SSE 04:31:57 10° E
Cosmos 2237 Rocket 4.3 04:25:15 10° NNW 04:29:49 24° NE 04:34:21 10° E
Meteor 1-18 Rocket 4.3 04:24:25 10° SSW 04:29:59 56° WNW 04:35:30 10° N
Cosmos 968 Rocket 3.7 04:25:01 10° NNW 04:29:59 48° WSW 04:34:53 10° S
USA 307 3.2 04:27:02 12° WNW 04:30:47 58° N 04:34:51 10° E
ERBS 3.5 04:28:40 10° NW 04:31:12 27° N 04:33:44 10° ENE
Meteor 2-10 3.9 04:26:00 10° NNW 04:31:12 82° WSW 04:36:15 10° S
COSMOS 2487 3.8 04:31:40 10° S 04:34:18 34° ESE 04:36:56 10° NE
H-2A R/B 4.4 04:30:26 10° NNE 04:35:15 31° E 04:40:01 10° SSE
MINOTAUR 4 R/B 4.2 04:32:59 10° S 04:36:23 50° W 04:39:50 10° NNW
Spot 1 4.4 04:32:38 10° SSE 04:37:31 89° NE 04:42:09 10° NNW
H-2A R/B 2.9 04:35:50 10° N 04:39:23 48° WNW 04:42:55 10° SW
Cosmos 1607 4.5 04:33:32 10° NW 04:39:40 61° NE 04:45:49 10° ESE
USA 306 3.1 04:35:58 10° WNW 04:40:03 62° N 04:44:08 10° E
Cosmos 2061 Rocket 4.4 04:37:28 10° SW 04:43:17 41° WNW 04:49:09 10° N
SL-24 R/B - RUBIN 2 3.9 04:39:18 10° WSW 04:43:31 46° NW 04:47:46 10° NE
PSLV R/B 3.6 04:40:18 10° N 04:44:34 60° WNW 04:48:46 10° SSW
Cosmos 405 Rocket 3.9 04:41:04 10° S 04:44:52 49° E 04:48:45 10° NNE
Cosmos 1939 Rocket 3.9 04:40:56 10° NNE 04:44:52 51° E 04:48:44 10° S
Cosmos 1733 Rocket 3.1 04:41:56 10° NNW 04:46:17 56° W 04:50:35 10° S
Cosmos 1809 Rocket 4.5 04:40:22 10° NNW 04:46:32 85° W 04:52:42 10° S
ATLAS CENTAUR R/B 3.4 04:44:41 10° WNW 04:48:23 21° NNW 04:52:01 10° NNE
Cosmos 2344 4.3 04:40:30 10° NW 04:49:07 81° SW 05:01:10 10° SE
Cosmos 1066 Rocket 4.3 04:44:33 10° SSW 04:50:17 87° WNW 04:55:54 10° NNE
Meteor 2-4 Rocket 4.1 04:47:04 10° SW 04:52:30 44° WNW 04:57:48 10° N
COSMOS 2428 3.3 04:46:51 10° NNW 04:52:34 62° NE 04:58:13 10° SE
NOSS 3-2 (A) 4.0 04:49:42 10° WSW 04:55:17 45° NNW 05:01:52 10° NE
NOSS 3-2 (C) 3.5 04:50:13 10° WSW 04:55:50 63° NW 05:02:33 10° NE
Genesis I 4.4 04:51:58 10° SSW 04:55:51 48° SE 04:59:47 10° NE
Cosmos 2322 Rocket 2.9 04:52:23 10° NW 04:57:21 32° WSW 05:02:17 10° SSW
